| time (UTC) | temp F | wind direction | speed MPH | gust MPH | rain 1hr in | rain 24hr in | rain mn in | humidity % | barometer mb |
| 20260503184627 | 61 | 339 | 2.0 | 2.0 | 0.00 | 0.00 | 0.00 | 64 | 1013.3 |
| 20260503184124 | 61 | 272 | 2.0 | 2.0 | 0.00 | 0.00 | 0.00 | 63 | 1013.1 |
| 20260503183620 | 0 | 0.0 | 0.0 | 0.00 | 0.00 | 0.00 | 1013.3 | ||
| 20260503183118 | 0 | 0.0 | 0.0 | 0.00 | 0.00 | 0.00 | 1013.5 | ||
| 20260503182616 | 0 | 0.0 | 0.0 | 0.00 | 0.00 | 0.00 | 1013.6 | ||
| 20260503182115 | 0 | 0.0 | 0.0 | 0.00 | 0.00 | 0.00 | 1013.7 | ||
| 20260503181611 | 0 | 0.0 | 0.0 | 0.00 | 0.00 | 0.00 | 1013.6 | ||
| 20260503181108 | 60 | 337 | 0.0 | 0.0 | 0.00 | 0.00 | 0.00 | 68 | 1013.5 |
| 20260503180605 | 60 | 337 | 0.0 | 0.0 | 0.00 | 0.00 | 0.00 | 68 | 1013.6 |
| 20260503180103 | 60 | 337 | 2.0 | 2.0 | 0.00 | 0.00 | 0.00 | 67 | 1013.7 |
| 20260503175559 | 59 | 38 | 1.0 | 2.0 | 0.00 | 0.00 | 0.00 | 71 | 1013.7 |
| 20260503175056 | 59 | 38 | 1.0 | 2.0 | 0.00 | 0.00 | 0.00 | 71 | 1013.6 |
| 20260503174553 | 59 | 326 | 1.0 | 1.0 | 0.00 | 0.00 | 0.00 | 74 | 1013.5 |
| 20260503174049 | 59 | 326 | 1.0 | 1.0 | 0.00 | 0.00 | 0.00 | 74 | 1013.6 |
| 20260503173544 | 57 | 324 | 1.0 | 1.0 | 0.00 | 0.00 | 0.00 | 78 | 1013.7 |
| 20260503173041 | 57 | 324 | 1.0 | 1.0 | 0.00 | 0.00 | 0.00 | 78 | 1013.7 |
| 20260503172539 | 0 | 0.0 | 0.0 | 0.00 | 0.00 | 0.00 | 1013.3 | ||
| 20260503172036 | 0 | 0.0 | 0.0 | 0.00 | 0.00 | 0.00 | 1013.3 | ||
| 20260503171532 | 0 | 0.0 | 0.0 | 0.00 | 0.00 | 0.00 | 1013.5 | ||
| 20260503171030 | 0 | 0.0 | 0.0 | 0.00 | 0.00 | 0.00 | 1013.5 | ||
| 20260503170526 | 0 | 0.0 | 0.0 | 0.00 | 0.00 | 0.00 | 1013.5 | ||
| 20260503150918 | 0 | 0.0 | 0.0 | 0.00 | 0.00 | 0.00 | 1012.8 | ||
| 20260503150415 | 56 | 340 | 0.0 | 0.0 | 0.00 | 0.00 | 0.00 | 78 | 1012.9 |
| 20260503131308 | 53 | 352 | 0.0 | 1.0 | 0.00 | 0.00 | 0.00 | 87 | 1011.5 |
| 20260503130805 | 53 | 351 | 0.0 | 0.0 | 0.00 | 0.00 | 0.00 | 87 | 1011.5 |
| 20260503130303 | 53 | 358 | 0.0 | 1.0 | 0.00 | 0.00 | 0.00 | 87 | 1011.6 |
| 20260503110656 | 54 | 347 | 0.0 | 0.0 | 0.00 | 0.00 | 0.00 | 84 | 1011.4 |
| 20260503110154 | 54 | 347 | 0.0 | 0.0 | 0.00 | 0.00 | 0.00 | 84 | 1011.4 |
| 20260503100120 | 54 | 319 | 1.0 | 1.0 | 0.00 | 0.00 | 0.00 | 81 | 1011.3 |
| 20260503081504 | 55 | 343 | 0.0 | 1.0 | 0.00 | 0.00 | 0.00 | 79 | 1012.0 |
| 20260503081001 | 55 | 344 | 0.0 | 0.0 | 0.00 | 0.00 | 0.00 | 80 | 1012.0 |
| 20260503080457 | 55 | 344 | 0.0 | 0.0 | 0.00 | 0.00 | 0.00 | 81 | 1012.0 |
| 20260503072933 | 55 | 346 | 0.0 | 0.0 | 0.00 | 0.00 | 0.00 | 79 | 1012.0 |
| 20260503072431 | 55 | 355 | 0.0 | 0.0 | 0.00 | 0.00 | 0.00 | 79 | 1012.3 |
| 20260503071928 | 55 | 341 | 0.0 | 0.0 | 0.00 | 0.00 | 0.00 | 80 | 1012.4 |
| 20260503071425 | 55 | 341 | 0.0 | 0.0 | 0.00 | 0.00 | 0.00 | 80 | 1012.3 |
| 20260503070921 | 55 | 340 | 0.0 | 0.0 | 0.00 | 0.00 | 0.00 | 80 | 1012.5 |
| 20260503070419 | 55 | 340 | 0.0 | 0.0 | 0.00 | 0.00 | 0.00 | 80 | 1012.2 |
| 20260503054832 | 0 | 0.0 | 0.0 | 0.00 | 0.00 | 0.00 | 1012.4 | ||
| 20260503054327 | 55 | 7 | 1.0 | 2.0 | 0.00 | 0.00 | 0.00 | 79 | 1012.5 |
| 20260503053825 | 55 | 7 | 1.0 | 2.0 | 0.00 | 0.00 | 0.00 | 79 | 1012.6 |
| 20260503053324 | 55 | 6 | 2.0 | 3.0 | 0.00 | 0.00 | 0.00 | 79 | 1012.6 |
| 20260503052819 | 55 | 6 | 2.0 | 3.0 | 0.00 | 0.00 | 0.00 | 79 | 1012.4 |
| 20260503052317 | 55 | 1 | 0.0 | 0.0 | 0.00 | 0.00 | 0.00 | 79 | 1012.5 |
| 20260503051813 | 55 | 5 | 1.0 | 1.0 | 0.00 | 0.00 | 0.00 | 79 | 1012.6 |
| 20260503051309 | 55 | 8 | 3.0 | 3.0 | 0.00 | 0.00 | 0.00 | 79 | 1012.8 |
| 20260503050806 | 56 | 0 | 1.0 | 1.0 | 0.00 | 0.00 | 0.00 | 78 | 1012.9 |
| 20260503050302 | 56 | 317 | 1.0 | 1.0 | 0.00 | 0.00 | 0.00 | 78 | 1012.8 |
| 20260503045800 | 55 | 356 | 0.0 | 0.0 | 0.00 | 0.00 | 0.00 | 78 | 1012.6 |
| 20260503045258 | 55 | 3 | 1.0 | 1.0 | 0.00 | 0.00 | 0.00 | 78 | 1012.6 |
| 20260503044753 | 56 | 4 | 3.0 | 3.0 | 0.00 | 0.00 | 0.00 | 77 | 1012.5 |
| 20260503044251 | 56 | 337 | 1.0 | 1.0 | 0.00 | 0.00 | 0.00 | 78 | 1012.5 |
| 20260503043748 | 56 | 337 | 1.0 | 1.0 | 0.00 | 0.00 | 0.00 | 78 | 1012.4 |
| 20260503043245 | 0 | 0.0 | 0.0 | 0.00 | 0.00 | 0.00 | 1012.6 | ||
| 20260503042741 | 56 | 9 | 1.0 | 2.0 | 0.00 | 0.00 | 0.00 | 77 | 1012.3 |
| 20260503042238 | 56 | 9 | 1.0 | 2.0 | 0.00 | 0.00 | 0.00 | 77 | 1012.3 |
| 20260503041733 | 56 | 1 | 0.0 | 0.0 | 0.00 | 0.00 | 0.00 | 77 | 1012.4 |
| 20260503041232 | 56 | 315 | 1.0 | 2.0 | 0.00 | 0.00 | 0.00 | 77 | 1012.3 |
| 20260503040730 | 56 | 315 | 1.0 | 2.0 | 0.00 | 0.00 | 0.00 | 77 | 1012.3 |
| 20260503040227 | 56 | 352 | 1.0 | 2.0 | 0.00 | 0.00 | 0.00 | 76 | 1012.3 |
| 20260503035724 | 56 | 323 | 3.0 | 3.0 | 0.00 | 0.00 | 0.00 | 76 | 1012.2 |
| 20260503035221 | 56 | 323 | 3.0 | 3.0 | 0.00 | 0.00 | 0.00 | 76 | 1012.1 |
| 20260503034718 | 56 | 355 | 1.0 | 1.0 | 0.00 | 0.00 | 0.00 | 76 | 1012.1 |
| 20260503034215 | 56 | 347 | 1.0 | 1.0 | 0.00 | 0.00 | 0.00 | 76 | 1012.0 |
| 20260503033713 | 56 | 359 | 2.0 | 2.0 | 0.00 | 0.00 | 0.00 | 76 | 1011.8 |
| 20260503033210 | 57 | 2 | 4.0 | 5.0 | 0.00 | 0.00 | 0.00 | 76 | 1011.7 |
| 20260503032708 | 57 | 9 | 3.0 | 3.0 | 0.00 | 0.00 | 0.00 | 77 | 1011.8 |
| 20260503032206 | 57 | 358 | 2.0 | 2.0 | 0.00 | 0.00 | 0.00 | 78 | 1011.7 |
| 20260503031703 | 57 | 358 | 2.0 | 2.0 | 0.00 | 0.00 | 0.00 | 78 | 1011.7 |
| 20260503031201 | 57 | 25 | 2.0 | 2.0 | 0.00 | 0.00 | 0.00 | 78 | 1011.8 |
| 20260503030657 | 57 | 25 | 2.0 | 2.0 | 0.00 | 0.00 | 0.00 | 78 | 1011.8 |
| 20260503030154 | 57 | 23 | 2.0 | 3.0 | 0.00 | 0.00 | 0.00 | 78 | 1011.6 |
| 20260503025651 | 57 | 4 | 3.0 | 3.0 | 0.00 | 0.00 | 0.00 | 78 | 1011.6 |
| 20260503025149 | 58 | 18 | 1.0 | 2.0 | 0.00 | 0.00 | 0.00 | 76 | 1011.7 |
| 20260503024644 | 58 | 298 | 3.0 | 5.0 | 0.00 | 0.00 | 0.00 | 76 | 1011.3 |
| 20260503024142 | 58 | 1 | 3.0 | 3.0 | 0.00 | 0.00 | 0.00 | 76 | 1011.4 |
| 20260503023639 | 58 | 346 | 3.0 | 3.0 | 0.00 | 0.00 | 0.00 | 75 | 1011.3 |
| 20260503023136 | 58 | 8 | 1.0 | 1.0 | 0.00 | 0.00 | 0.00 | 76 | 1011.3 |
| 20260503022632 | 59 | 10 | 3.0 | 3.0 | 0.00 | 0.00 | 0.00 | 76 | 1011.3 |
| 20260503022131 | 59 | 10 | 3.0 | 3.0 | 0.00 | 0.00 | 0.00 | 76 | 1011.2 |
| 20260503021629 | 59 | 4 | 1.0 | 1.0 | 0.00 | 0.00 | 0.00 | 76 | 1011.2 |
| 20260503021125 | 59 | 359 | 3.0 | 5.0 | 0.00 | 0.00 | 0.00 | 76 | 1011.3 |
| 20260503020622 | 59 | 6 | 2.0 | 2.0 | 0.00 | 0.00 | 0.00 | 76 | 1011.2 |
| 20260503020120 | 59 | 6 | 2.0 | 2.0 | 0.00 | 0.00 | 0.00 | 76 | 1011.3 |
| 20260503015616 | 60 | 13 | 3.0 | 3.0 | 0.00 | 0.00 | 0.00 | 74 | 1011.2 |
| 20260503015113 | 60 | 13 | 3.0 | 3.0 | 0.00 | 0.00 | 0.00 | 74 | 1011.0 |
| 20260503014609 | 60 | 31 | 1.0 | 2.0 | 0.00 | 0.00 | 0.00 | 75 | 1011.3 |
| 20260503014107 | 60 | 318 | 3.0 | 3.0 | 0.00 | 0.00 | 0.00 | 75 | 1011.4 |
| 20260503013604 | 60 | 346 | 1.0 | 1.0 | 0.00 | 0.00 | 0.00 | 74 | 1011.2 |
| 20260503013102 | 60 | 346 | 1.0 | 1.0 | 0.00 | 0.00 | 0.00 | 74 | 1011.3 |
| 20260503012559 | 61 | 354 | 3.0 | 3.0 | 0.00 | 0.00 | 0.00 | 73 | 1011.4 |
| 20260503012055 | 61 | 20 | 3.0 | 3.0 | 0.00 | 0.00 | 0.00 | 73 | 1011.3 |
| 20260503011552 | 61 | 20 | 3.0 | 3.0 | 0.00 | 0.00 | 0.00 | 73 | 1011.3 |
| 20260503011049 | 61 | 20 | 3.0 | 3.0 | 0.00 | 0.00 | 0.00 | 73 | 1011.4 |
| 20260503010545 | 62 | 359 | 2.0 | 2.0 | 0.00 | 0.00 | 0.00 | 72 | 1011.3 |
| 20260503010043 | 61 | 31 | 5.0 | 7.0 | 0.00 | 0.00 | 0.00 | 72 | 1011.3 |
| 20260503005540 | 61 | 21 | 3.0 | 6.0 | 0.00 | 0.00 | 0.00 | 72 | 1011.3 |
| 20260503005037 | 62 | 16 | 7.0 | 8.0 | 0.00 | 0.00 | 0.00 | 71 | 1011.2 |
| 20260503004533 | 62 | 350 | 2.0 | 3.0 | 0.00 | 0.00 | 0.00 | 70 | 1011.4 |
| 20260503004032 | 63 | 330 | 1.0 | 1.0 | 0.00 | 0.00 | 0.00 | 68 | 1011.3 |
| 20260503003528 | 63 | 346 | 5.0 | 7.0 | 0.00 | 0.00 | 0.00 | 68 | 1011.2 |
| 20260503003025 | 64 | 356 | 3.0 | 5.0 | 0.00 | 0.00 | 0.00 | 67 | 1011.0 |
| 20260503002522 | 65 | 349 | 2.0 | 2.0 | 0.00 | 0.00 | 0.00 | 66 | 1011.3 |
| 20260503002019 | 65 | 326 | 2.0 | 2.0 | 0.00 | 0.00 | 0.00 | 66 | 1011.2 |
| 20260503001515 | 65 | 358 | 1.0 | 2.0 | 0.00 | 0.00 | 0.00 | 67 | 1011.1 |
| 20260503001014 | 65 | 333 | 5.0 | 6.0 | 0.00 | 0.00 | 0.00 | 66 | 1011.3 |
| 20260503000511 | 65 | 321 | 3.0 | 3.0 | 0.00 | 0.00 | 0.00 | 66 | 1011.2 |
| 20260503000008 | 64 | 348 | 1.0 | 3.0 | 0.00 | 0.00 | 0.00 | 67 | 1011.2 |
| 20260502235504 | 66 | 7 | 4.0 | 6.0 | 0.00 | 0.00 | 0.00 | 65 | 1011.2 |
| 20260502235002 | 66 | 34 | 7.0 | 9.0 | 0.00 | 0.00 | 0.00 | 65 | 1011.1 |
| 20260502234458 | 66 | 19 | 3.0 | 5.0 | 0.00 | 0.00 | 0.00 | 64 | 1011.1 |
| 20260502233956 | 66 | 9 | 3.0 | 5.0 | 0.00 | 0.00 | 0.00 | 64 | 1011.0 |
| 20260502233455 | 68 | 349 | 2.0 | 2.0 | 0.00 | 0.00 | 0.00 | 63 | 1011.1 |
| 20260502232953 | 68 | 345 | 2.0 | 3.0 | 0.00 | 0.00 | 0.00 | 62 | 1011.4 |
| 20260502232449 | 67 | 283 | 2.0 | 2.0 | 0.00 | 0.00 | 0.00 | 63 | 1011.3 |
| 20260502231946 | 67 | 9 | 3.0 | 5.0 | 0.00 | 0.00 | 0.00 | 63 | 1011.3 |
| 20260502231443 | 69 | 297 | 2.0 | 3.0 | 0.00 | 0.00 | 0.00 | 60 | 1011.4 |
| 20260502230941 | 68 | 356 | 2.0 | 3.0 | 0.00 | 0.00 | 0.00 | 61 | 1011.3 |
| 20260502230439 | 68 | 347 | 1.0 | 2.0 | 0.00 | 0.00 | 0.00 | 62 | 1011.4 |
| 20260502225937 | 68 | 356 | 2.0 | 2.0 | 0.00 | 0.00 | 0.00 | 61 | 1011.4 |
| 20260502225433 | 68 | 323 | 1.0 | 2.0 | 0.00 | 0.00 | 0.00 | 62 | 1011.6 |
| 20260502224930 | 68 | 349 | 3.0 | 3.0 | 0.00 | 0.00 | 0.00 | 62 | 1011.6 |
| 20260502224426 | 68 | 349 | 3.0 | 3.0 | 0.00 | 0.00 | 0.00 | 62 | 1011.6 |
| 20260502223923 | 68 | 347 | 3.0 | 5.0 | 0.00 | 0.00 | 0.00 | 62 | 1011.8 |
| 20260502223421 | 69 | 327 | 3.0 | 3.0 | 0.00 | 0.00 | 0.00 | 61 | 1011.8 |
| 20260502222919 | 68 | 330 | 1.0 | 2.0 | 0.00 | 0.00 | 0.00 | 61 | 1011.9 |
| 20260502222416 | 68 | 337 | 3.0 | 3.0 | 0.00 | 0.00 | 0.00 | 61 | 1012.0 |
| 20260502221916 | 68 | 2 | 3.0 | 3.0 | 0.00 | 0.00 | 0.00 | 61 | 1012.2 |
| 20260502221413 | 68 | 2 | 3.0 | 3.0 | 0.00 | 0.00 | 0.00 | 61 | 1011.9 |
| 20260502220910 | 68 | 304 | 2.0 | 5.0 | 0.00 | 0.00 | 0.00 | 62 | 1012.2 |
| 20260502220406 | 0 | 0.0 | 0.0 | 0.00 | 0.00 | 0.00 | 1012.1 | ||
| 20260502215903 | 0 | 0.0 | 0.0 | 0.00 | 0.00 | 0.00 | 1012.2 | ||
| 20260502215401 | 0 | 0.0 | 0.0 | 0.00 | 0.00 | 0.00 | 1012.2 | ||
| 20260502214857 | 0 | 0.0 | 0.0 | 0.00 | 0.00 | 0.00 | 1012.3 | ||
| 20260502214354 | 0 | 0.0 | 0.0 | 0.00 | 0.00 | 0.00 | 1012.4 | ||
| 20260502213851 | 0 | 0.0 | 0.0 | 0.00 | 0.00 | 0.00 | 1012.3 | ||
| 20260502213348 | 0 | 0.0 | 0.0 | 0.00 | 0.00 | 0.00 | 1012.3 | ||
| 20260502212847 | 0 | 0.0 | 0.0 | 0.00 | 0.00 | 0.00 | 1012.3 | ||
| 20260502212345 | 0 | 0.0 | 0.0 | 0.00 | 0.00 | 0.00 | 1012.3 | ||
| 20260502211842 | 0 | 0.0 | 0.0 | 0.00 | 0.00 | 0.00 | 1012.6 | ||
| 20260502211337 | 0 | 0.0 | 0.0 | 0.00 | 0.00 | 0.00 | 1012.4 | ||
| 20260502210835 | 0 | 0.0 | 0.0 | 0.00 | 0.00 | 0.00 | 1012.6 | ||
| 20260502210332 | 0 | 0.0 | 0.0 | 0.00 | 0.00 | 0.00 | 1012.7 | ||
| 20260502205829 | 0 | 0.0 | 0.0 | 0.00 | 0.00 | 0.00 | 1012.6 | ||
| 20260502205325 | 0 | 0.0 | 0.0 | 0.00 | 0.00 | 0.00 | 1012.8 | ||
| 20260502204823 | 0 | 0.0 | 0.0 | 0.00 | 0.00 | 0.00 | 1012.9 | ||
| 20260502204320 | 0 | 0.0 | 0.0 | 0.00 | 0.00 | 0.00 | 1012.9 | ||
| 20260502203817 | 0 | 0.0 | 0.0 | 0.00 | 0.00 | 0.00 | 1013.1 | ||
| 20260502203315 | 0 | 0.0 | 0.0 | 0.00 | 0.00 | 0.00 | 1013.1 | ||
| 20260502202814 | 0 | 0.0 | 0.0 | 0.00 | 0.00 | 0.00 | 1013.0 | ||
| 20260502202313 | 0 | 0.0 | 0.0 | 0.00 | 0.00 | 0.00 | 1013.2 | ||
| 20260502201810 | 0 | 0.0 | 0.0 | 0.00 | 0.00 | 0.00 | 1013.5 | ||
| 20260502201306 | 67 | 322 | 2.0 | 2.0 | 0.00 | 0.00 | 0.00 | 64 | 1013.2 |
| 20260502200803 | 67 | 322 | 2.0 | 2.0 | 0.00 | 0.00 | 0.00 | 64 | 1013.8 |
| 20260502200258 | 66 | 337 | 3.0 | 3.0 | 0.00 | 0.00 | 0.00 | 64 | 1013.7 |
| 20260502195757 | 67 | 289 | 2.0 | 2.0 | 0.00 | 0.00 | 0.00 | 64 | 1013.8 |
| 20260502195253 | 66 | 346 | 1.0 | 1.0 | 0.00 | 0.00 | 0.00 | 65 | 1013.7 |
| 20260502194750 | 66 | 335 | 2.0 | 2.0 | 0.00 | 0.00 | 0.00 | 65 | 1013.7 |
| 20260502194247 | 67 | 216 | 1.0 | 2.0 | 0.00 | 0.00 | 0.00 | 64 | 1014.0 |
| 20260502193742 | 66 | 292 | 2.0 | 2.0 | 0.00 | 0.00 | 0.00 | 65 | 1013.7 |
| 20260502193240 | 65 | 321 | 1.0 | 2.0 | 0.00 | 0.00 | 0.00 | 66 | 1013.9 |
| 20260502192740 | 64 | 296 | 3.0 | 3.0 | 0.00 | 0.00 | 0.00 | 68 | 1014.0 |
| 20260502192238 | 65 | 3 | 1.0 | 1.0 | 0.00 | 0.00 | 0.00 | 66 | 1014.1 |
| 20260502191734 | 64 | 308 | 1.0 | 2.0 | 0.00 | 0.00 | 0.00 | 68 | 1014.0 |
| 20260502191233 | 64 | 308 | 1.0 | 2.0 | 0.00 | 0.00 | 0.00 | 68 | 1014.2 |
| 20260502190729 | 65 | 13 | 3.0 | 5.0 | 0.00 | 0.00 | 0.00 | 68 | 1014.2 |
| 20260502190227 | 0 | 0.0 | 0.0 | 0.00 | 0.00 | 0.00 | 1014.1 | ||
| 20260502185727 | 0 | 0.0 | 0.0 | 0.00 | 0.00 | 0.00 | 1014.3 | ||
| 20260502185224 | 0 | 0.0 | 0.0 | 0.00 | 0.00 | 0.00 | 1014.3 |